KE5FMN Weather Reports


time (UTC)temp
F
wind
direction
speed
knots
gust
knots
rain 1hr
in
rain 24hr
in
rain mn
in
humidity
%
barometer
mb
20260504184551 80 160 3.5 8.7 0.00 0.00 0.00 49 1010.2
20260504183059 80 201 2.6 7.8 0.00 0.00 0.00 49 1010.3
20260504181558 80 140 2.6 6.1 0.00 0.00 0.00 48 1010.3
20260504174556 79 168 4.3 9.6 0.00 0.00 0.00 47 1011.0
20260504173052 79 169 2.6 8.7 0.00 0.00 0.00 47 1011.2
20260504171555 79 243 1.7 8.7 0.00 0.00 0.00 48 1011.3
20260504081555 61 0 0.0 0.0 0.00 0.00 0.00 77 1012.5
20260504050107 65 165 0.0 1.7 0.00 0.00 0.00 69 1013.9
20260504044600 65 162 0.9 2.6 0.00 0.00 0.00 68 1013.9
20260504043055 65 167 1.7 2.6 0.00 0.00 0.00 68 1014.0
20260504041602 65 169 0.0 1.7 0.00 0.00 0.00 69 1014.0
20260504034603 64 178 0.0 0.9 0.00 0.00 0.00 69 1014.3
20260504033053 64 0 0.0 0.9 0.00 0.00 0.00 69 1014.2
20260504031558 64 0 0.0 0.0 0.00 0.00 0.00 69 1014.3
20260504030058 64 0 0.0 0.0 0.00 0.00 0.00 69 1014.3
20260504024614 64 159 0.0 0.0 0.00 0.00 0.00 69 1014.1
20260504023054 63 0 0.0 0.0 0.00 0.00 0.00 72 1014.1
20260504021555 63 0 0.0 0.0 0.00 0.00 0.00 71 1014.2
20260504020057 64 0 0.0 0.0 0.00 0.00 0.00 69 1014.1
20260504014605 65 0 0.0 0.0 0.00 0.00 0.00 67 1014.0
20260504013100 66 0 0.0 0.0 0.00 0.00 0.00 66 1013.9
20260504011600 68 0 0.0 0.0 0.00 0.00 0.00 61 1013.9
20260504010105 70 0 0.0 0.0 0.00 0.00 0.00 57 1013.8
20260504004556 71 0 0.0 0.9 0.00 0.00 0.00 55 1013.8
20260504003100 72 153 0.0 0.9 0.00 0.00 0.00 54 1013.9
20260504001551 72 176 0.0 0.9 0.00 0.00 0.00 53 1013.9
20260504000137 73 171 0.0 1.7 0.00 0.00 0.00 51 1013.9
20260503234601 74 154 0.0 2.6 0.00 0.00 0.00 50 1014.3
20260503233051 75 182 0.9 2.6 0.00 0.00 0.00 49 1014.3
20260503231552 75 150 0.0 2.6 0.00 0.00 0.00 48 1014.4
20260503230053 75 173 1.7 6.1 0.00 0.00 0.00 47 1014.3
20260503224554 75 172 0.0 1.7 0.00 0.00 0.00 51 1014.5
20260503223055 76 168 0.9 3.5 0.00 0.00 0.00 50 1014.7
20260503221555 76 169 1.7 5.2 0.00 0.00 0.00 48 1014.8
20260503220054 76 153 1.7 5.2 0.00 0.00 0.00 49 1015.0
20260503214555 76 160 0.9 5.2 0.00 0.00 0.00 48 1015.1
20260503213052 76 0 0.9 3.5 0.00 0.00 0.00 47 1015.4
20260503211604 77 136 1.7 6.1 0.00 0.00 0.00 50 1015.7
20260503210053 77 265 0.9 5.2 0.00 0.00 0.00 46 1015.9
20260503204555 77 164 1.7 8.7 0.00 0.00 0.00 45 1016.1
20260503203108 77 211 1.7 4.3 0.00 0.00 0.00 46 1016.4
20260503201613 77 207 1.7 6.1 0.00 0.00 0.00 45 1016.7
20260503200057 76 185 2.6 9.6 0.00 0.00 0.00 46 1016.9
20260503194557 76 191 2.6 4.3 0.00 0.00 0.00 47 1017.3
20260503193056 76 136 1.7 5.2 0.00 0.00 0.00 44 1017.5
20260503191553 75 228 0.9 4.3 0.00 0.00 0.00 48 1017.6
20260503190053 75 159 1.7 7.0 0.00 0.00 0.00 43 1017.9